Forside
METAR-TAF:

METAR-TAF

Lufthavne :

Grinnell, Iowa, USA

Breddekreds: 41-42-35N, længdekreds: 092-44-09W, højde: 307 m

Aktuelle vejr

Denne rapport blev lavet for 17 minutter siden, kl. 01:15 UTC
Vind 6 kt fra nordnordvest
Temperatur 18°C
Fugtighed 45%
Tryk 1015 hPa
Sigt: 16.1 km
skyfri

METAR: KGGI 220115Z AUTO 33006KT 10SM CLR 18/06 A2998 RMK AO2 T01800055

Tid: 20:32 (01:32 UTC)


TAF: fraværende

Vejrobservationer og prognoser fra mere end 4000 lufthavne (METAR og TAF).

De gule og røde prikker repræsenterer de meteorologiske stationer.

Flyt musen over at se navnet på stationen.

Så klik over at se vejr observationer og prognoser.

At skifte det kort: Klik på de grønne knapper med et sort kors for at zoome ind; på den grønne knap med en bindestreg for at zoome ud; eller på de grønne pile for tilstødende kort.


METAR-TAF: